#timestamp,LO_Frequency,Hit,StdDev 
1676923215.6,286047001.0,N
1676923235.5,286047003.7,N
1676923255.3,286047007.1,N
1676923275.1,286047003.6,N
1676923295.9,286047005.5,N
1676923315.7,286047006.4,N
1676923335.5,286047008.7,N
1676923355.4,286047006.0,N
1676923375.2,286047003.8,N
1676923395.1,286047003.1,N
1676923396.0,286047003.1,N
1676923415.8,286047008.0,N
1676923435.6,286047009.2,N
1676923455.5,286047003.7,N
1676923475.3,286047005.0,N
1676923495.1,286047001.4,N
1676923515.9,286047002.7,N
1676923535.7,286047003.4,N
1676923555.6,286047004.0,N
1676923575.4,286047002.3,N
1676923595.2,286047002.6,N
1676923615.1,286047006.6,N
1676923616.0,286047006.6,N
1676923635.8,286047007.1,N
1676923655.7,286047003.7,N
1676923675.5,286047002.9,N
1676923695.3,286047007.1,N
1676923715.2,286047009.2,N
1676923735.9,286047003.5,N
1676923755.7,286047005.3,N
1676923775.6,286047008.5,Y
1676923795.4,286047010.0,P
1676923815.3,286047009.6,P
1676923835.1,286047011.5,P
1676923836.0,286047011.5,Y
1676923855.8,286047007.3,P
1676923875.7,286047004.0,P
1676923895.5,286047005.2,N
1676923915.3,286047003.4,N
1676923935.2,286047003.4,N
1676923955.0,286047011.9,Y
1676923955.9,286047002.3,P
1676923975.8,286046998.8,N
1676923995.6,286046999.1,N
1676924015.4,286046999.3,N
1676924035.3,286046998.8,N
1676924055.1,286046998.1,N
1676924075.8,286046995.8,N
1676924095.7,286046990.1,Y
1676924115.5,286046994.7,P
1676924135.4,286046993.5,N
1676924155.2,286046993.5,N
1676924175.0,286046996.8,N
1676924175.9,286046996.8,N
1676924195.8,286047000.5,N
1676924215.6,286047000.7,N
1676924235.4,286047001.0,N
1676924255.3,286046998.9,N
1676924275.1,286046998.9,N
1676924295.9,286047000.0,N
1676924315.7,286046994.9,N
1676924335.5,286046992.4,N
1676924355.4,286046992.5,N
1676924375.2,286046999.0,N
1676924395.0,286046995.0,N
1676924395.9,286046995.0,N
1676924415.8,286046997.5,N
1676924435.6,286047001.9,N
1676924455.5,286046998.0,N
1676924475.3,286047002.2,N
1676924495.1,286047002.1,N
1676924515.9,286047000.3,N
1676924535.7,286046997.6,N
1676924555.5,286047000.7,N
1676924575.4,286047003.9,N
1676924595.2,286047001.2,N
1676924615.0,286046997.1,N
1676924615.9,286046997.1,N
1676924635.8,286046994.9,N
1676924655.6,286046991.7,N
1676924675.5,286046991.3,N
1676924695.3,286046990.0,N
1676924715.1,286046986.4,Y
1676924735.9,286046988.6,P
1676924755.7,286046989.7,N
1676924775.6,286046992.0,N
1676924795.4,286046992.9,N
1676924815.2,286046990.4,Y
1676924835.1,286047001.5,P
1676924836.0,286047001.5,N
1676924855.8,286046999.9,N
1676924875.6,286047004.7,N
1676924895.5,286047008.4,N
1676924915.3,286047010.3,N
1676924935.2,286047006.2,N
1676924955.9,286047008.4,N
1676924975.7,286047008.9,N
1676924995.6,286047008.6,N
1676925015.4,286047006.7,N
1676925035.2,286047004.9,N
1676925055.1,286047010.3,N
1676925056.0,286047010.3,N
1676925075.8,286047013.8,N
1676925095.6,286047009.3,N
1676925115.5,286047013.9,N
1676925135.3,286047011.8,N
1676925155.2,286047013.3,N
1676925175.9,286047013.5,N
1676925195.7,286047009.9,N
1676925215.6,286047007.9,N
1676925235.4,286047012.1,N
1676925255.2,286047012.0,N
1676925275.1,286047008.3,N
1676925276.0,286047008.3,N
1676925295.8,286047011.3,N
1676925315.7,286047013.0,N
1676925335.5,286047018.5,Y
1676925355.3,286047010.3,P
1676925375.2,286047008.9,P
1676925395.0,286047006.8,P
1676925395.9,286047006.8,Y
1676925415.8,286046996.2,P
1676925435.6,286046998.6,N
1676925455.4,286047004.1,N
1676925475.3,286047002.5,N
1676925495.1,286047002.7,N
1676925515.8,286046999.2,N
1676925535.7,286046995.2,N
1676925555.5,286046999.2,N
1676925575.4,286046999.2,N
1676925595.2,286046995.0,N
1676925615.0,286046992.2,N
1676925615.9,286046992.2,N
1676925635.8,286046995.4,N
1676925655.6,286046996.4,N
1676925675.4,286046994.0,N
1676925695.3,286046997.4,N
1676925715.1,286046995.5,N
1676925735.8,286047000.8,N
1676925755.7,286046995.6,N
1676925775.5,286046998.0,N
1676925795.4,286046995.3,N
1676925815.2,286046996.4,N
1676925835.0,286046991.8,N
1676925835.9,286046991.8,N
1676925855.8,286046990.3,N
1676925875.6,286046989.2,N
1676925895.4,286046994.2,N
1676925915.3,286046997.8,N
1676925935.1,286046993.4,N
1676925955.9,286046993.4,N
1676925975.7,286046994.1,N
1676925995.5,286046995.0,N
1676926015.4,286046995.1,N
1676926035.2,286046997.2,N
1676926055.1,286046993.4,N
1676926056.0,286046993.4,N
1676926075.8,286046999.4,N
1676926095.6,286046997.5,N
1676926115.5,286046993.4,N
1676926135.3,286046995.6,N
1676926155.2,286046995.3,N
1676926175.9,286046994.8,N
1676926195.7,286046993.9,N
1676926215.6,286046991.7,Y
1676926235.4,286046999.0,P
1676926255.2,286047001.0,N
1676926275.1,286047004.4,N
1676926276.0,286047004.4,N
1676926295.8,286047001.9,N
1676926315.7,286047007.4,N
1676926335.5,286047009.0,N
1676926355.3,286047005.2,N
1676926375.2,286047005.9,N
1676926395.0,286047003.0,N
1676926395.9,286047003.0,N
1676926415.8,286047003.2,N
1676926435.6,286047005.3,N
1676926455.4,286047006.0,N
1676926475.3,286046997.0,N
1676926495.1,286046993.4,N
1676926515.8,286046999.8,N
1676926535.7,286047010.6,N
1676926555.5,286047003.0,N
1676926575.1,286047002.5,N
1676926576.0,286047002.5,N
1676926595.8,286046999.8,N
1676926615.6,286047003.2,N
1676926635.5,286047002.7,N
1676926655.3,286046998.2,N
1676926675.1,286046999.7,N
1676926695.9,286047000.3,N
1676926715.7,286046997.4,N
1676926735.6,286046995.5,N
1676926755.4,286046997.3,N
1676926775.2,286046996.8,N
1676926795.1,286047000.9,N
1676926796.0,286047000.9,N
